Flag for Yemen Weather past 2 weeks in Al Hudaydah, Yemen

Now
93 °F

Partly sunny.


Feels Like: 103 °F
Forecast: 84 / 98 °F
Wind: 7 mph from South

Location: Hodeidah

Current Time: Aug 22, 2014 at 7:08:18 PM

Latest Report: Aug 22, 2014 at 6:00 PM


Visibility: 2 mi

Pressure: 29.56 "Hg

Humidity: 53%

Dew point: 73 °F

Location of Al HudaydahLocation

Historic Weather in Al Hudaydah — Graph

°F

Al Hudaydah temperature yesterday

Maximum temperature yesterday: 95 °F (at 12:00 PM)
Minimum temperature yesterday: 88 °F (at 6:00 AM)
Average temperature yesterday: 92 °F

Past Weeks' High & Low Weather Summary

 TemperatureHumidityPressure
High100 °F (Aug 15, 12:00 PM)89% (Aug 11, 5:00 AM)29.77 "Hg (Aug 11, 5:00 AM)
Low82 °F (Aug 19, 6:00 PM)31% (Aug 18, 11:00 AM)29.56 "Hg (Aug 16, 4:00 PM)
Average91 °F66%29.66 "Hg
* Reported Aug 7 6:00 PM — Aug 22 6:00 PM, Al Hudaydah, Weather by CustomWeather, © 2014

Note: Actual official high and low records may vary slightly from our data, if they occured in-between our weather recording intervals... More about our weather records

Advertising

Al Hudaydah weather history for previous 24 hours

 ConditionsComfort  
Time TempWeatherWind HumidityBarometerVisibility
6:00 PM
Aug 22
93 °FPartly sunny.7 mph53%29.56 "Hg2 mi
5:00 PM91 °FScattered clouds.8 mph80%29.59 "Hg5 mi
4:00 PM93 °FPartly sunny.8 mph71%29.59 "Hg5 mi
3:00 PM95 °FThunderstorms. Scattered clouds.13 mph67%29.59 "Hg4 mi
1:00 PM95 °FScattered clouds.18 mph67%29.62 "Hg4 mi
12:00 PM93 °FPassing clouds.9 mph71%29.65 "Hg4 mi
11:00 AM93 °FPassing clouds.10 mph67%29.65 "Hg4 mi
10:00 AM91 °FPassing clouds.14 mph71%29.68 "Hg4 mi
9:00 AM91 °FScattered clouds.8 mph71%29.68 "Hg4 mi
8:00 AM90 °FClear.2 mph75%29.68 "Hg4 mi
7:00 AM88 °FClear.8 mph84%29.65 "Hg4 mi
6:00 AM88 °FSunny.3 mph84%29.62 "Hg10 mi
5:00 AM88 °FClear.5 mph84%29.62 "Hg10 mi
4:00 AM88 °FClear.5 mph79%29.62 "Hg10 mi
3:00 AM88 °FWarm.7 mph75%29.62 "HgN/A
11:00 PM
Aug 21
91 °FClear.6 mph59%29.62 "Hg10 mi
10:00 PM91 °FClear.7 mph59%29.62 "Hg10 mi
7:00 PM93 °FPassing clouds.9 mph56%29.59 "HgN/A
Weather by CustomWeather, © 2014

See weather overviewHow to use our weather pages